STARLINK-32440, 61714

Orbit data source: Space-Track

STARLINK-32440, 61714 is a payload satellite owned by SpaceX/Seattle (US) in LEO that was launched on Wed, 30 Oct 2024 UTC via an FALCON 9 launch vehicle from the Air Force Eastern Test Range (AFETR). Payload-class satellites include a variety of spacecraft equipped with specific instruments for various scientific and technological missions. These include communications satellites like Starlink; space stations such as the ISS; scientific satellites like the Hubble; Earth observation satellites from companies like Planet Labs, Umbra, and HawkEye 360; GPS; miniature CubeSats for education and research; and military/defense satellites.

Loading next visibility...
Identifier
61714, 2024-196H
Orbit
LEO
Country
Flag of USUS
Related business
Manufacturer
SpaceX/Seattle
Mission
Operational Commercial Communications
Bus & Motor
STARLINK V2M, Unknown motor
Mass
730 kg wet, ~700 kg dry
Launch date (UTC)
Icon of a cake. It is the launch day of the satellite!2024-10-30 (1 year ago)
Launch vehicle
FALCON 9
Launch site
Air Force Eastern Test Range (AFETR)
Object type
Payload
Rocket body
Debris
Shape & HBR
Box + 2 Pan, 17.7 m
Radar Cross Section
33.884 m², Large (>1 m²)

Expand to show TLE details & history
Last TLE update: 6 hours ago

TLE from 6 hours ago
0 STARLINK-32440
1 61714U 24196H   25303.30460438 -.00000555  00000-0 -66302-5 0  9991
2 61714  53.1612 346.9960 0000954  99.9931 260.1178 15.30178289 57195
Epoch: 2025-10-30T07:18Z
TLE epoch observation values (Epoch: 2025-10-30T07:18:37.818Z)
Latitude
0.00002°
Longitude
-161.52686°
Altitude
476.292 km
Speed
7.629 km/s
True Right ascension
23h 07m 59s
True Declination
0° 00' 00"
Sunlit
Object was in full shadow at epoch
Visualization orbit readout
Latitude
Unknown
Longitude
Unknown
Altitude
Unknown
Speed
Unknown
Apparent Right ascension
Unknown
Apparent Declination
Unknown
Sunlit
N/A
Visualization observer readout
Local Sidereal Time
09:11:36
Azimuth
Unknown
Elevation
Unknown
Doppler factor
Unknown
Orbital elements
Apogee altitude
476.19 km
Perigee altitude
474.882 km
Semi-major axis
6,853.673 km
Eccentricity
0.0001
Inclination
53.1612°
RAAN
346.996°
Arg. of periapsis
99.9931°
True anomaly
260.10703°
Mean anomaly
260.1178°
Eccentric anomaly
260.11242°
Mean motion
3.82523 °/min
Orbital period
94.11 mins
BSTAR
-0.0000066302
Loading maneuver chart data...
Computing Atmospheric mass density...
Loading historical data...
Loading historical data...
Loading historical data...
Loading historical data...
Loading historical data...
Loading historical data...
Loading historical data...

Documentation

Showing up to 5 results
|